Time,TemperatureF,DewpointF,PressureIn,WindDirection,WindDirectionDegrees,WindSpeedMPH,WindSpeedGustMPH,Humidity,HourlyPrecipIn,Conditions,Clouds,dailyrainin,SoftwareType,DateUTC
2013-11-20 00:03:00,32.8,28.0,30.39,NNE,27,0.0,1.0,81,0.00,,,0.00,weatherlink.com 1.10,2013-11-20 05:03:00,
2013-11-20 00:18:00,32.3,27.0,30.39,NNE,27,0.0,0.0,82,0.00,,,0.00,weatherlink.com 1.10,2013-11-20 05:18:00,
2013-11-20 00:33:00,32.3,27.0,30.38,NNE,29,0.0,2.0,82,0.00,,,0.00,weatherlink.com 1.10,2013-11-20 05:33:00,
2013-11-20 00:48:00,32.4,28.0,30.38,NNE,30,0.0,0.0,82,0.00,,,0.00,weatherlink.com 1.10,2013-11-20 05:48:00,
2013-11-20 01:03:00,32.6,27.0,30.38,NNE,18,0.0,1.0,81,0.00,,,0.00,weatherlink.com 1.10,2013-11-20 06:03:00,
2013-11-20 01:18:00,32.7,28.0,30.37,NNE,29,0.0,1.0,81,0.00,,,0.00,weatherlink.com 1.10,2013-11-20 06:18:00,
2013-11-20 01:33:00,32.8,28.0,30.37,NNE,25,0.0,0.0,81,0.00,,,0.00,weatherlink.com 1.10,2013-11-20 06:33:00,
2013-11-20 01:48:00,32.7,27.0,30.37,NNE,20,0.0,2.0,80,0.00,,,0.00,weatherlink.com 1.10,2013-11-20 06:48:00,
2013-11-20 02:03:00,32.6,27.0,30.37,North,352,0.0,2.0,80,0.00,,,0.00,weatherlink.com 1.10,2013-11-20 07:03:00,
2013-11-20 02:18:00,32.2,27.0,30.37,North,352,0.0,0.0,80,0.00,,,0.00,weatherlink.com 1.10,2013-11-20 07:18:00,
2013-11-20 02:33:00,31.8,27.0,30.38,North,1,0.0,1.0,81,0.00,,,0.00,weatherlink.com 1.10,2013-11-20 07:33:00,
2013-11-20 02:48:00,31.9,27.0,30.38,ESE,105,0.0,1.0,81,0.00,,,0.00,weatherlink.com 1.10,2013-11-20 07:48:00,
2013-11-20 03:03:00,32.0,27.0,30.38,NE,45,0.0,2.0,81,0.00,,,0.00,weatherlink.com 1.10,2013-11-20 08:03:00,
2013-11-20 03:18:00,32.0,27.0,30.38,NE,39,0.0,1.0,81,0.00,,,0.00,weatherlink.com 1.10,2013-11-20 08:18:00,
2013-11-20 03:33:00,31.8,27.0,30.38,ESE,103,0.0,2.0,81,0.00,,,0.00,weatherlink.com 1.10,2013-11-20 08:33:00,
2013-11-20 03:48:00,31.5,26.0,30.38,East,87,0.0,1.0,81,0.00,,,0.00,weatherlink.com 1.10,2013-11-20 08:48:00,
2013-11-20 04:03:00,31.2,26.0,30.38,East,83,0.0,1.0,82,0.00,,,0.00,weatherlink.com 1.10,2013-11-20 09:03:00,
2013-11-20 04:18:00,31.0,26.0,30.38,ENE,63,0.0,1.0,82,0.00,,,0.00,weatherlink.com 1.10,2013-11-20 09:18:00,
2013-11-20 04:33:00,30.6,26.0,30.38,East,94,0.0,1.0,83,0.00,,,0.00,weatherlink.com 1.10,2013-11-20 09:33:00,
2013-11-20 04:48:00,30.7,26.0,30.39,North,353,1.0,2.0,83,0.00,,,0.00,weatherlink.com 1.10,2013-11-20 09:48:00,
2013-11-20 05:03:00,30.6,26.0,30.39,NNE,26,0.0,2.0,83,0.00,,,0.00,weatherlink.com 1.10,2013-11-20 10:03:00,
2013-11-20 05:18:00,30.9,26.0,30.38,NNE,26,1.0,2.0,83,0.00,,,0.00,weatherlink.com 1.10,2013-11-20 10:18:00,
2013-11-20 05:33:00,31.1,26.0,30.38,NNE,20,2.0,3.0,82,0.00,,,0.00,weatherlink.com 1.10,2013-11-20 10:33:00,
2013-11-20 05:48:00,31.0,26.0,30.38,NNE,16,0.0,2.0,82,0.00,,,0.00,weatherlink.com 1.10,2013-11-20 10:48:00,
2013-11-20 06:03:00,30.9,26.0,30.38,NE,47,0.0,3.0,82,0.00,,,0.00,weatherlink.com 1.10,2013-11-20 11:03:00,
2013-11-20 06:18:00,30.4,26.0,30.39,NE,46,0.0,1.0,82,0.00,,,0.00,weatherlink.com 1.10,2013-11-20 11:18:00,
2013-11-20 06:33:00,30.2,26.0,30.38,East,84,0.0,1.0,83,0.00,,,0.00,weatherlink.com 1.10,2013-11-20 11:33:00,
2013-11-20 06:48:00,30.0,25.0,30.38,East,86,0.0,0.0,83,0.00,,,0.00,weatherlink.com 1.10,2013-11-20 11:48:00,
2013-11-20 07:04:00,30.2,26.0,30.38,North,355,1.0,2.0,84,0.00,,,0.00,weatherlink.com 1.10,2013-11-20 12:04:00,
2013-11-20 07:19:00,30.7,26.0,30.38,NE,36,2.0,4.0,83,0.00,,,0.00,weatherlink.com 1.10,2013-11-20 12:19:00,
2013-11-20 07:34:00,30.9,26.0,30.37,NNE,12,1.0,4.0,82,0.00,,,0.00,weatherlink.com 1.10,2013-11-20 12:34:00,
2013-11-20 07:49:00,31.0,26.0,30.38,NE,49,0.0,4.0,82,0.00,,,0.00,weatherlink.com 1.10,2013-11-20 12:49:00,
2013-11-20 08:04:00,31.3,26.0,30.38,NNE,27,0.0,3.0,82,0.00,,,0.00,weatherlink.com 1.10,2013-11-20 13:04:00,
2013-11-20 08:19:00,31.8,27.0,30.38,NNE,26,0.0,5.0,82,0.00,,,0.00,weatherlink.com 1.10,2013-11-20 13:19:00,
2013-11-20 08:34:00,32.4,27.0,30.38,SSE,151,1.0,4.0,81,0.00,,,0.00,weatherlink.com 1.10,2013-11-20 13:34:00,
2013-11-20 08:49:00,33.0,27.0,30.38,NE,37,0.0,3.0,80,0.00,,,0.00,weatherlink.com 1.10,2013-11-20 13:49:00,
2013-11-20 09:04:00,34.3,28.0,30.39,ENE,70,2.0,3.0,78,0.00,,,0.00,weatherlink.com 1.10,2013-11-20 14:04:00,
2013-11-20 09:19:00,35.3,28.0,30.39,ESE,120,1.0,3.0,75,0.00,,,0.00,weatherlink.com 1.10,2013-11-20 14:19:00,
2013-11-20 09:34:00,36.5,29.0,30.39,ESE,110,2.0,4.0,73,0.00,,,0.00,weatherlink.com 1.10,2013-11-20 14:34:00,
2013-11-20 09:49:00,36.9,29.0,30.39,ENE,75,2.0,6.0,72,0.00,,,0.00,weatherlink.com 1.10,2013-11-20 14:49:00,
2013-11-20 10:04:00,37.0,29.0,30.39,SE,142,2.0,5.0,72,0.00,,,0.00,weatherlink.com 1.10,2013-11-20 15:04:00,
2013-11-20 10:19:00,37.8,29.0,30.39,ESE,119,1.0,4.0,71,0.00,,,0.00,weatherlink.com 1.10,2013-11-20 15:19:00,
2013-11-20 10:34:00,38.8,29.0,30.39,SE,146,0.0,5.0,69,0.00,,,0.00,weatherlink.com 1.10,2013-11-20 15:34:00,
2013-11-20 10:49:00,39.7,30.0,30.38,ESE,118,2.0,4.0,68,0.00,,,0.00,weatherlink.com 1.10,2013-11-20 15:49:00,
2013-11-20 11:04:00,40.4,31.0,30.38,NE,54,0.0,2.0,68,0.00,,,0.00,weatherlink.com 1.10,2013-11-20 16:04:00,
2013-11-20 11:19:00,41.2,31.0,30.37,SE,146,0.0,3.0,67,0.00,,,0.00,weatherlink.com 1.10,2013-11-20 16:19:00,
2013-11-20 11:34:00,42.0,31.0,30.37,East,101,1.0,3.0,66,0.00,,,0.00,weatherlink.com 1.10,2013-11-20 16:34:00,
2013-11-20 11:49:00,42.6,31.0,30.36,SE,134,0.0,6.0,64,0.00,,,0.00,weatherlink.com 1.10,2013-11-20 16:49:00,
2013-11-20 12:04:00,44.4,32.0,30.35,SE,142,2.0,4.0,63,0.00,,,0.00,weatherlink.com 1.10,2013-11-20 17:04:00,
2013-11-20 12:19:00,44.7,32.0,30.34,ESE,115,0.0,6.0,61,0.00,,,0.00,weatherlink.com 1.10,2013-11-20 17:19:00,
2013-11-20 12:34:00,45.1,32.0,30.34,SSW,211,2.0,5.0,60,0.00,,,0.00,weatherlink.com 1.10,2013-11-20 17:34:00,
2013-11-20 12:49:00,45.4,32.0,30.33,ESE,117,1.0,6.0,60,0.00,,,0.00,weatherlink.com 1.10,2013-11-20 17:49:00,
2013-11-20 13:04:00,46.2,33.0,30.33,SE,125,2.0,7.0,60,0.00,,,0.00,weatherlink.com 1.10,2013-11-20 18:04:00,
2013-11-20 13:20:00,46.8,33.0,30.32,SE,130,5.0,5.0,59,0.00,,,0.00,weatherlink.com 1.10,2013-11-20 18:20:00,
2013-11-20 13:35:00,47.3,33.0,30.31,South,176,1.0,7.0,58,0.00,,,0.00,weatherlink.com 1.10,2013-11-20 18:35:00,
2013-11-20 13:50:00,47.9,33.0,30.31,SE,139,3.0,7.0,57,0.00,,,0.00,weatherlink.com 1.10,2013-11-20 18:50:00,
2013-11-20 14:05:00,48.4,34.0,30.30,SE,132,2.0,8.0,57,0.00,,,0.00,weatherlink.com 1.10,2013-11-20 19:05:00,
2013-11-20 14:20:00,49.1,34.0,30.30,South,188,2.0,6.0,56,0.00,,,0.00,weatherlink.com 1.10,2013-11-20 19:20:00,
2013-11-20 14:35:00,49.5,34.0,30.29,East,89,3.0,8.0,56,0.00,,,0.00,weatherlink.com 1.10,2013-11-20 19:35:00,
2013-11-20 14:50:00,50.2,34.0,30.28,SSE,165,0.0,4.0,55,0.00,,,0.00,weatherlink.com 1.10,2013-11-20 19:50:00,
2013-11-20 15:05:00,50.7,35.0,30.28,South,170,0.0,7.0,55,0.00,,,0.00,weatherlink.com 1.10,2013-11-20 20:05:00,
2013-11-20 15:20:00,50.6,35.0,30.27,SE,142,3.0,5.0,55,0.00,,,0.00,weatherlink.com 1.10,2013-11-20 20:20:00,
2013-11-20 15:35:00,51.1,35.0,30.27,East,89,1.0,5.0,54,0.00,,,0.00,weatherlink.com 1.10,2013-11-20 20:35:00,
2013-11-20 15:50:00,51.6,35.0,30.28,SE,132,1.0,6.0,54,0.00,,,0.00,weatherlink.com 1.10,2013-11-20 20:50:00,
2013-11-20 16:05:00,52.0,35.0,30.28,SE,127,1.0,4.0,53,0.00,,,0.00,weatherlink.com 1.10,2013-11-20 21:05:00,
2013-11-20 16:20:00,52.1,35.0,30.28,SE,138,0.0,6.0,52,0.00,,,0.00,weatherlink.com 1.10,2013-11-20 21:20:00,
2013-11-20 16:35:00,52.5,35.0,30.28,SSE,158,0.0,2.0,52,0.00,,,0.00,weatherlink.com 1.10,2013-11-20 21:35:00,
2013-11-20 16:50:00,51.8,34.0,30.28,SE,136,0.0,2.0,52,0.00,,,0.00,weatherlink.com 1.10,2013-11-20 21:50:00,
2013-11-20 17:05:00,50.1,34.0,30.28,SE,136,0.0,3.0,55,0.00,,,0.00,weatherlink.com 1.10,2013-11-20 22:05:00,
2013-11-20 17:20:00,49.1,34.0,30.28,SE,132,0.0,1.0,57,0.00,,,0.00,weatherlink.com 1.10,2013-11-20 22:20:00,
2013-11-20 17:35:00,48.1,34.0,30.28,SE,140,0.0,0.0,58,0.00,,,0.00,weatherlink.com 1.10,2013-11-20 22:35:00,
2013-11-20 17:50:00,47.2,33.0,30.28,SE,139,0.0,0.0,59,0.00,,,0.00,weatherlink.com 1.10,2013-11-20 22:50:00,
2013-11-20 18:05:00,46.3,34.0,30.28,SE,139,0.0,0.0,62,0.00,,,0.00,weatherlink.com 1.10,2013-11-20 23:05:00,
2013-11-20 18:20:00,45.2,34.0,30.28,SE,139,0.0,0.0,64,0.00,,,0.00,weatherlink.com 1.10,2013-11-20 23:20:00,
2013-11-20 18:35:00,45.1,34.0,30.28,SE,140,0.0,0.0,66,0.00,,,0.00,weatherlink.com 1.10,2013-11-20 23:35:00,
2013-11-20 18:50:00,45.2,34.0,30.28,SE,139,0.0,0.0,66,0.00,,,0.00,weatherlink.com 1.10,2013-11-20 23:50:00,
2013-11-20 19:05:00,45.1,34.0,30.29,SE,140,0.0,0.0,65,0.00,,,0.00,weatherlink.com 1.10,2013-11-21 00:05:00,
2013-11-20 19:20:00,45.5,34.0,30.29,SE,140,0.0,0.0,65,0.00,,,0.00,weatherlink.com 1.10,2013-11-21 00:20:00,
2013-11-20 19:35:00,45.5,35.0,30.29,SE,139,0.0,0.0,66,0.00,,,0.00,weatherlink.com 1.10,2013-11-21 00:35:00,
2013-11-20 19:50:00,45.0,35.0,30.29,SE,139,0.0,0.0,67,0.00,,,0.00,weatherlink.com 1.10,2013-11-21 00:50:00,
2013-11-20 20:05:00,43.8,34.0,30.28,SE,138,0.0,0.0,69,0.00,,,0.00,weatherlink.com 1.10,2013-11-21 01:05:00,
2013-11-20 20:20:00,43.2,34.0,30.28,NNW,332,0.0,0.0,70,0.00,,,0.00,weatherlink.com 1.10,2013-11-21 01:20:00,
2013-11-20 20:35:00,42.8,34.0,30.28,NNW,332,0.0,0.0,70,0.00,,,0.00,weatherlink.com 1.10,2013-11-21 01:35:00,
2013-11-20 20:50:00,42.2,34.0,30.29,NNW,332,0.0,0.0,72,0.00,,,0.00,weatherlink.com 1.10,2013-11-21 01:50:00,
2013-11-20 21:05:00,41.7,34.0,30.29,NNW,347,0.0,0.0,73,0.00,,,0.00,weatherlink.com 1.10,2013-11-21 02:05:00,
2013-11-20 21:20:00,41.8,34.0,30.29,North,357,0.0,0.0,73,0.00,,,0.00,weatherlink.com 1.10,2013-11-21 02:20:00,
2013-11-20 21:35:00,42.2,34.0,30.28,North,357,0.0,0.0,72,0.00,,,0.00,weatherlink.com 1.10,2013-11-21 02:35:00,
2013-11-20 21:50:00,42.2,34.0,30.28,North,356,0.0,0.0,72,0.00,,,0.00,weatherlink.com 1.10,2013-11-21 02:50:00,
2013-11-20 22:05:00,42.3,34.0,30.29,North,356,0.0,0.0,71,0.00,,,0.00,weatherlink.com 1.10,2013-11-21 03:05:00,
2013-11-20 22:20:00,42.0,34.0,30.28,North,355,0.0,0.0,72,0.00,,,0.00,weatherlink.com 1.10,2013-11-21 03:20:00,
2013-11-20 22:35:00,42.1,34.0,30.28,North,355,0.0,0.0,72,0.00,,,0.00,weatherlink.com 1.10,2013-11-21 03:35:00,
2013-11-20 22:50:00,41.5,33.0,30.28,North,357,0.0,0.0,73,0.00,,,0.00,weatherlink.com 1.10,2013-11-21 03:50:00,
2013-11-20 23:05:00,41.1,33.0,30.28,North,355,0.0,0.0,74,0.00,,,0.00,weatherlink.com 1.10,2013-11-21 04:05:00,
2013-11-20 23:20:00,41.1,33.0,30.29,NNW,347,0.0,0.0,74,0.00,,,0.00,weatherlink.com 1.10,2013-11-21 04:20:00,
2013-11-20 23:35:00,40.9,34.0,30.29,NNW,347,0.0,0.0,75,0.00,,,0.00,weatherlink.com 1.10,2013-11-21 04:35:00,
2013-11-20 23:50:00,40.6,34.0,30.29,North,349,0.0,0.0,76,0.00,,,0.00,weatherlink.com 1.10,2013-11-21 04:50:00,